User: anonymous   Login
Location: Niverville
(49.6028°N, 97.0419°W)
Time: 16:09:30
(UTC-05:00)
Language:

Cosmos 2237 Rocket - Orbit

View from above orbital plane
View from above orbital plane
View from above satellite
View from above satellite

Ground track
Ground track

The orbit data is extracted from the following two-line orbital elements,

1 22566U 93016B   14298.13777590 -.00000157  00000-0 -56814-4 0  1897
2 22566 071.0074 294.5932 0009563 176.5717 183.5473 14.14859352114620
Epoch (UTC): 25 October 2014 03:18:23
Eccentricity: 0.0009563
inclination: 71.0074°
perigee height: 836 km
apogee height: 849 km
right ascension of ascending node: 294.5932°
argument of perigee: 176.5717°
revolutions per day: 14.14859352
mean anomaly at epoch: 183.5473°
orbit number at epoch: 11462

The dashed part of the orbit path shows where the satellite is in the earth's shadow,  

DLR